map of TSE home
Great Circle Mapper logo
TSE - Airport
Location
City:  Astana, Kazakhstan
Name:Astana International Airport
ICAO / IATA:UACC / TSE

Details
Type:Airport (Aerodrome, Airfield)
Use:Public/Civil, International (customs port of entry)
Latitude:5101'20"N (51.022222)
Longitude:7128'01"E (71.466944)
Datum:WGS 1984
Elevation:1165 ft (355 m)
Variation:9.72E (WMM2015 magnetic declination)
0.05 annual change
Runways:1
Longest:11484 × 147 ft (3500 × 45 m), paved

Time
Time Zone:UTC+6
Local Time:

Weather
METAR:UACC 271930Z VRB01MPS CAVOK 15/11 Q1016 R04/0/0070 NOSIG RMK QFE731/0974
TAF:UACC 271700Z 2718/2818 23005MPS 9999 NSC TX22/2810Z TN11/2801Z
FM280600 30007MPS 9999 SCT030CB BKN100

Related Locations
Nearby:
Farthest:PNT: 10894 mi / 17532 km
Puerto Natales [Teniente Julio Gallardo], MA, CL

Find:

   beyond  
but within

Other Information
Maps:
NOTAMs:
Links:
Sources:

  
flag of Kazakhstan   

Sectional Chart

Flight Planning
at skyvector.com

Satellite Image

Google Maps Satellite View

 

Copyright © 2004-2015 Karl L. Swartz. All rights reserved.
The Great Circle Mapper name and logo are trademarks of the Great Circle Mapper.
All other trademarks mentioned herein belong to their respective owners.
Please see credits for attibutions and further copyright information.

  Follow gcmap on Facebook Follow gcmap on Twitter Follow gcmap on Google+

hCard Microformat

Geo Microformat